Location: El Atico
(3.0014°N, 75.4378°W)
Time: 06:41:11
(UTC+00:00)

Ariane H10+ - Visible Passes

Search period start: 11 March 2026 00:00
Search period end: 21 March 2026 00:00
Orbit: 222 x 2735 km, 6.7° (Epoch: 10 March)

Date Brightness Start Highest point End Pass type
(mag) Time Alt. Az. Time Alt. Az. Time Alt. Az.
11 Mar 3.9 01:10:30 10° SW 01:11:20 14° SW 01:11:20 14° SW visible
11 Mar 2.9 09:24:15 54° NW 09:25:57 68° N 09:37:27 10° E visible
12 Mar 2.6 00:09:36 10° WSW 00:14:35 29° S 00:16:21 20° SE visible
12 Mar 3.9 08:28:58 36° ENE 08:28:58 36° ENE 08:34:41 10° E visible
12 Mar 3.6 10:24:21 15° WNW 10:30:52 74° N 10:44:13 10° E visible
13 Mar 3.7 01:14:29 10° WSW 01:16:16 19° SW 01:16:16 19° SW visible
13 Mar 2.7 09:28:34 52° NW 09:30:06 67° N 09:40:32 10° E visible
14 Mar 2.5 00:12:17 10° WSW 00:18:30 39° S 00:20:18 26° SE visible
14 Mar 3.9 08:32:23 31° ENE 08:32:23 31° ENE 08:36:57 10° E visible
14 Mar 3.3 10:27:40 13° WNW 10:33:43 76° N 10:46:02 10° E visible
15 Mar 3.5 01:16:14 10° WSW 01:19:11 26° WSW 01:19:11 26° WSW visible
15 Mar 2.4 09:30:59 54° NW 09:32:12 68° N 09:41:29 10° E visible
16 Mar 2.5 00:12:40 10° WSW 00:20:12 51° S 00:22:15 30° ESE visible
16 Mar 4.1 08:33:52 25° ENE 08:33:52 25° ENE 08:37:10 10° E visible
16 Mar 3.0 10:29:06 13° W 10:34:31 81° N 10:45:39 10° E visible
17 Mar 3.1 01:15:44 10° WSW 01:20:05 37° WSW 01:20:05 37° WSW visible
17 Mar 2.0 09:31:29 61° NW 09:32:14 71° N 09:40:21 10° E visible
18 Mar 2.6 00:10:44 10° WSW 00:19:39 63° S 00:22:12 31° ESE visible
18 Mar 4.3 08:33:27 19° E 08:33:27 19° E 08:35:21 10° E visible
18 Mar 2.6 10:28:36 13° W 10:33:17 88° N 10:43:07 10° E visible
19 Mar 2.8 01:12:54 10° W 01:18:58 52° WSW 01:18:58 52° WSW visible
19 Mar 1.6 09:30:04 76° NNW 09:30:13 77° N 09:37:08 10° E visible
20 Mar 2.8 00:06:29 10° W 00:16:50 75° S 00:20:07 29° E visible
20 Mar 4.9 02:14:18 10° W 02:15:12 13° W 02:15:12 13° W visible
20 Mar 4.7 08:31:07 12° E 08:31:07 12° E 08:31:33 10° E visible
20 Mar 2.3 10:26:10 14° W 10:30:03 83° S 10:38:31 10° E visible
